CHINASAT 5A (ZX 5A)

Last updated on Aug. 11, 2018, 12:20 a.m. UTC

1 25354U 98033A   18222.61785626  .00000031  00000-0  00000+0 0  9991
2 25354   2.1354  84.8181 0000735  57.6412 261.4517  0.98992843 78470
UTC
Height (km)
Latitude
Longitude
Inclination
Orbital Period
UTC large
Height (km)
Speed (km/s)
/
Latitude / Longitude
Inclination (degrees)
Orbital Period (minutes)
Azimuth
Elevation
Range (km)
Doppler Factor
iOS Compass Heading
iOS Angle

Next 30 passes for location: Hong Kong

Rise time Rise Azimuth (degrees) Set time Set Azimuth (degrees) Duration Max altitude (degrees)

No matching passes for this satellites